,,,PA_Meas_PMT16A,,PR_Meas_QMR101_102,,RH_Meas_QMH101,,SR_Meas_QMS101,,TA_Meas_QMH101,,GenWind,,GenWind,
date,time,status,PA,status,PR,status,RH,status,SR,status,TA,status,DirAvg,status,SpdAvg,
2010-02-08, 00:00:04,VALID,1007.98,VALID,0,VALID,84.9018,VALID,0.100563,VALID,24.7529,VALID,345,VALID,0.394531,
2010-02-08, 00:01:04,VALID,1007.96,VALID,0,VALID,85.1459,VALID,0.100563,VALID,24.7335,VALID,360,VALID,0.272656,
2010-02-08, 00:02:04,VALID,1007.96,VALID,0,VALID,85.4282,VALID,0.100563,VALID,24.6945,VALID,360,VALID,0.446094,
2010-02-08, 00:03:04,VALID,1007.96,VALID,0,VALID,85.4053,VALID,0.100563,VALID,24.6556,VALID,360,VALID,0.380078,
2010-02-08, 00:04:04,VALID,1007.95,VALID,0,VALID,85.0849,VALID,0.100563,VALID,24.6148,VALID,360,VALID,0.196484,
2010-02-08, 00:05:04,VALID,1007.97,VALID,0,VALID,85.062,VALID,0.100563,VALID,24.6361,VALID,360,VALID,0.249219,
2010-02-08, 00:06:04,VALID,1007.94,VALID,0,VALID,85.0696,VALID,0.100563,VALID,24.6556,VALID,360,VALID,0.0777344,
2010-02-08, 00:07:04,VALID,1007.92,VALID,0,VALID,85.2299,VALID,0.100563,VALID,24.6342,VALID,360,VALID,0.213281,
2010-02-08, 00:08:04,VALID,1007.94,VALID,0,VALID,85.2222,VALID,0.100563,VALID,24.6556,VALID,360,VALID,0.0046875,
2010-02-08, 00:09:04,VALID,1007.92,VALID,0,VALID,85.0162,VALID,0.201126,VALID,24.675,VALID,360,VALID,0.0695312,
2010-02-08, 00:10:04,VALID,1007.93,VALID,0,VALID,85.0391,VALID,0.100563,VALID,24.6732,VALID,350,VALID,0,
2010-02-08, 00:11:04,VALID,1007.89,VALID,0,VALID,84.9857,VALID,0.100563,VALID,24.6964,VALID,350,VALID,0.593359,
2010-02-08, 00:12:04,VALID,1007.87,VALID,0,VALID,85.1307,VALID,0.100563,VALID,24.6945,VALID,350,VALID,0.743359,
2010-02-08, 00:13:04,VALID,1007.87,VALID,0,VALID,85.0773,VALID,0.100563,VALID,24.6945,VALID,349,VALID,0.590234,
2010-02-08, 00:14:04,VALID,1007.84,VALID,0,VALID,85.2985,VALID,0,VALID,24.6964,VALID,349,VALID,0.458203,
2010-02-08, 00:15:04,VALID,1007.84,VALID,0,VALID,85.2299,VALID,0,VALID,24.6574,VALID,347,VALID,0.682813,
2010-02-08, 00:16:04,VALID,1007.82,VALID,0,VALID,85.5121,VALID,0,VALID,24.638,VALID,346,VALID,0.511328,
2010-02-08, 00:17:04,VALID,1007.8,VALID,0,VALID,85.9775,VALID,0,VALID,24.599,VALID,346,VALID,0.302344,
2010-02-08, 00:18:04,VALID,1007.8,VALID,0,VALID,86.1453,VALID,0,VALID,24.5582,VALID,346,VALID,0.548828,
2010-02-08, 00:19:04,VALID,1007.8,VALID,0,VALID,86.1377,VALID,0,VALID,24.5406,VALID,346,VALID,0.410547,
2010-02-08, 00:20:04,VALID,1007.8,VALID,0,VALID,85.7105,VALID,0,VALID,24.5212,VALID,342,VALID,0.597656,
2010-02-08, 00:21:04,VALID,1007.78,VALID,0,VALID,85.8707,VALID,0,VALID,24.4998,VALID,343,VALID,0.422656,
2010-02-08, 00:22:04,VALID,1007.78,VALID,0,VALID,85.8936,VALID,0,VALID,24.5017,VALID,343,VALID,0.313672,
2010-02-08, 00:23:04,VALID,1007.73,VALID,0,VALID,85.8478,VALID,0,VALID,24.4822,VALID,343,VALID,0.219922,
2010-02-08, 00:24:04,VALID,1007.74,VALID,0,VALID,86.1148,VALID,0.100563,VALID,24.5017,VALID,343,VALID,0.501953,
2010-02-08, 00:25:04,VALID,1007.74,VALID,0,VALID,86.1148,VALID,0,VALID,24.4628,VALID,343,VALID,0.444922,
2010-02-08, 00:26:04,VALID,1007.72,VALID,0,VALID,86.1606,VALID,0.100563,VALID,24.4822,VALID,343,VALID,0.333203,
2010-02-08, 00:27:04,VALID,1007.67,VALID,0,VALID,86.4352,VALID,0,VALID,24.4433,VALID,343,VALID,0.427344,
2010-02-08, 00:28:04,VALID,1007.67,VALID,0,VALID,86.5268,VALID,0,VALID,24.422,VALID,343,VALID,0.351563,
2010-02-08, 00:29:04,VALID,1007.64,VALID,0,VALID,86.6565,VALID,0,VALID,24.4238,VALID,343,VALID,0.257422,
2010-02-08, 00:30:04,VALID,1007.62,VALID,0,VALID,86.6946,VALID,0,VALID,24.4043,VALID,343,VALID,0.0390625,
2010-02-08, 00:31:04,VALID,1007.61,VALID,0,VALID,86.542,VALID,0,VALID,24.4025,VALID,342,VALID,0.0867188,
2010-02-08, 00:32:04,VALID,1007.61,VALID,0,VALID,86.7633,VALID,0,VALID,24.4433,VALID,342,VALID,0.577344,
2010-02-08, 00:33:04,VALID,1007.57,VALID,0,VALID,86.7099,VALID,0,VALID,24.4433,VALID,344,VALID,0.464063,
2010-02-08, 00:34:04,VALID,1007.53,VALID,0,VALID,86.2445,VALID,0,VALID,24.4414,VALID,346,VALID,0.407031,
2010-02-08, 00:35:04,VALID,1007.56,VALID,0,VALID,86.8472,VALID,0,VALID,24.4628,VALID,346,VALID,0.5125,
2010-02-08, 00:36:04,VALID,1007.52,VALID,0,VALID,86.9311,VALID,0,VALID,24.4628,VALID,346,VALID,0.384766,
2010-02-08, 00:37:04,VALID,1007.53,VALID,0,VALID,86.4657,VALID,0,VALID,24.4433,VALID,330,VALID,0.525781,
2010-02-08, 00:38:04,VALID,1007.5,VALID,0,VALID,85.8325,VALID,0,VALID,24.4414,VALID,328,VALID,0.315234,
2010-02-08, 00:39:04,VALID,1007.5,VALID,0,VALID,85.68,VALID,0,VALID,24.5017,VALID,328,VALID,0.1375,
2010-02-08, 00:40:04,VALID,1007.49,VALID,0,VALID,85.6037,VALID,0,VALID,24.5193,VALID,328,VALID,0.423828,
2010-02-08, 00:41:04,VALID,1007.47,VALID,0,VALID,85.4053,VALID,0,VALID,24.5796,VALID,328,VALID,0.283203,
2010-02-08, 00:42:04,VALID,1007.46,VALID,0,VALID,84.9171,VALID,0,VALID,24.599,VALID,328,VALID,0.4375,
2010-02-08, 00:43:04,VALID,1007.48,VALID,0,VALID,84.734,VALID,0,VALID,24.6185,VALID,330,VALID,0.128125,
2010-02-08, 00:44:04,VALID,1007.46,VALID,0,VALID,84.8713,VALID,0,VALID,24.6361,VALID,330,VALID,0.395703,
2010-02-08, 00:45:04,VALID,1007.45,VALID,0,VALID,84.4059,VALID,0,VALID,24.6556,VALID,331,VALID,0.441406,
2010-02-08, 00:46:04,VALID,1007.41,VALID,0,VALID,85.207,VALID,0,VALID,24.6964,VALID,331,VALID,0.0734375,
2010-02-08, 00:47:04,VALID,1007.4,VALID,0,VALID,84.9705,VALID,0,VALID,24.6964,VALID,331,VALID,0.299609,
2010-02-08, 00:48:04,VALID,1007.4,VALID,0,VALID,84.3602,VALID,0,VALID,24.6964,VALID,331,VALID,0.136328,
2010-02-08, 00:49:04,VALID,1007.37,VALID,0,VALID,84.528,VALID,0,VALID,24.7159,VALID,331,VALID,0.207031,
2010-02-08, 00:50:04,VALID,1007.34,VALID,0,VALID,84.2839,VALID,0,VALID,24.7159,VALID,331,VALID,0.449609,
2010-02-08, 00:51:04,VALID,1007.33,VALID,0,VALID,83.8185,VALID,0,VALID,24.7353,VALID,332,VALID,0.369141,
2010-02-08, 00:52:04,VALID,1007.33,VALID,0,VALID,83.849,VALID,0,VALID,24.7548,VALID,332,VALID,0.00664063,
2010-02-08, 00:53:04,VALID,1007.33,VALID,0,VALID,83.6278,VALID,0,VALID,24.7937,VALID,337,VALID,0.416406,
2010-02-08, 00:54:04,VALID,1007.32,VALID,0,VALID,83.2463,VALID,0,VALID,24.8132,VALID,350,VALID,0.716016,
2010-02-08, 00:55:04,VALID,1007.33,VALID,0,VALID,83.2387,VALID,0,VALID,24.8327,VALID,26,VALID,0.606641,
2010-02-08, 00:56:04,VALID,1007.31,VALID,0,VALID,83.4752,VALID,0,VALID,24.8716,VALID,1,VALID,0.725781,
2010-02-08, 00:57:04,VALID,1007.29,VALID,0,VALID,83.7651,VALID,0,VALID,24.8716,VALID,356,VALID,0.492578,
2010-02-08, 00:58:04,VALID,1007.27,VALID,0,VALID,83.4142,VALID,0,VALID,24.8716,VALID,351,VALID,0.7375,
2010-02-08, 00:59:04,VALID,1007.29,VALID,0,VALID,83.1853,VALID,0,VALID,24.8522,VALID,345,VALID,0.613672,
2010-02-08, 01:00:04,VALID,1007.31,VALID,0,VALID,82.8878,VALID,0,VALID,24.8716,VALID,342,VALID,0.978125,
2010-02-08, 01:01:04,VALID,1007.28,VALID,0,VALID,82.9259,VALID,0,VALID,24.93,VALID,358,VALID,0.789453,
2010-02-08, 01:02:04,VALID,1007.27,VALID,0,VALID,82.5826,VALID,0,VALID,24.9106,VALID,333,VALID,0.967578,
2010-02-08, 01:03:04,VALID,1007.24,VALID,0,VALID,82.9488,VALID,0,VALID,24.9495,VALID,337,VALID,0.548047,
2010-02-08, 01:04:04,VALID,1007.22,VALID,0,VALID,82.4377,VALID,0,VALID,24.9282,VALID,341,VALID,0.548828,
2010-02-08, 01:05:04,VALID,1007.21,VALID,0,VALID,82.5674,VALID,0,VALID,24.9709,VALID,342,VALID,0.575391,
2010-02-08, 01:06:04,VALID,1007.18,VALID,0,VALID,82.5369,VALID,0,VALID,24.969,VALID,342,VALID,0.500391,
2010-02-08, 01:07:04,VALID,1007.16,VALID,0,VALID,82.3538,VALID,0,VALID,24.9709,VALID,342,VALID,0.392578,
2010-02-08, 01:08:04,VALID,1007.14,VALID,0,VALID,82.3843,VALID,0,VALID,24.969,VALID,359,VALID,0.776563,
2010-02-08, 01:09:04,VALID,1007.13,VALID,0,VALID,82.4224,VALID,0,VALID,24.969,VALID,331,VALID,0.481641,
2010-02-08, 01:10:04,VALID,1007.11,VALID,0,VALID,82.6055,VALID,0,VALID,24.9885,VALID,336,VALID,0.50625,
2010-02-08, 01:11:04,VALID,1007.08,VALID,0,VALID,82.0715,VALID,0,VALID,24.969,VALID,348,VALID,0.839063,
2010-02-08, 01:12:04,VALID,1007.06,VALID,0,VALID,81.8426,VALID,0,VALID,25.0079,VALID,354,VALID,0.709766,
2010-02-08, 01:13:04,VALID,1007.06,VALID,0,VALID,81.8197,VALID,0,VALID,25.0274,VALID,349,VALID,0.430078,
2010-02-08, 01:14:04,VALID,1007.07,VALID,0,VALID,81.7587,VALID,0,VALID,25.0274,VALID,333,VALID,0.382031,
2010-02-08, 01:15:04,VALID,1007.05,VALID,0,VALID,81.69,VALID,0,VALID,25.0255,VALID,336,VALID,0.632422,
2010-02-08, 01:16:04,VALID,1007.06,VALID,0,VALID,81.5985,VALID,0,VALID,25.0469,VALID,21,VALID,0.827734,
2010-02-08, 01:17:04,VALID,1007.02,VALID,0,VALID,81.5146,VALID,0,VALID,25.0469,VALID,352,VALID,1.04453,
2010-02-08, 01:18:04,VALID,1007.01,VALID,0,VALID,81.4993,VALID,0,VALID,25.0663,VALID,19,VALID,0.354688,
2010-02-08, 01:19:04,VALID,1007.01,VALID,0,VALID,81.4688,VALID,0,VALID,25.0858,VALID,8,VALID,0.470313,
2010-02-08, 01:20:04,VALID,1006.97,VALID,0,VALID,81.69,VALID,0,VALID,25.0644,VALID,356,VALID,0.844922,
2010-02-08, 01:21:04,VALID,1006.96,VALID,0,VALID,81.6138,VALID,0,VALID,25.0663,VALID,333,VALID,0.502344,
2010-02-08, 01:22:04,VALID,1006.94,VALID,0,VALID,81.6138,VALID,0,VALID,25.0469,VALID,344,VALID,1.03203,
2010-02-08, 01:23:04,VALID,1006.96,VALID,0,VALID,81.568,VALID,0,VALID,25.0469,VALID,343,VALID,0.474609,
2010-02-08, 01:24:04,VALID,1006.92,VALID,0,VALID,81.6519,VALID,0,VALID,25.0469,VALID,8,VALID,0.604297,
2010-02-08, 01:25:04,VALID,1006.92,VALID,0,VALID,81.3315,VALID,0,VALID,25.0469,VALID,350,VALID,1.88945,
2010-02-08, 01:26:04,VALID,1006.89,VALID,0,VALID,81.5985,VALID,0,VALID,25.006,VALID,355,VALID,0.923047,
2010-02-08, 01:27:04,VALID,1006.9,VALID,0,VALID,81.5756,VALID,0,VALID,25.0274,VALID,342,VALID,0.886719,
2010-02-08, 01:28:04,VALID,1006.89,VALID,0,VALID,81.4078,VALID,0,VALID,25.0079,VALID,355,VALID,0.8,
2010-02-08, 01:29:04,VALID,1006.88,VALID,0,VALID,81.8121,VALID,0,VALID,24.9885,VALID,350,VALID,0.584766,
2010-02-08, 01:30:04,VALID,1006.88,VALID,0,VALID,81.6519,VALID,0,VALID,24.969,VALID,335,VALID,0.644141,
2010-02-08, 01:31:04,VALID,1006.84,VALID,0,VALID,81.7587,VALID,0,VALID,24.9495,VALID,14,VALID,0.684766,
2010-02-08, 01:32:04,VALID,1006.85,VALID,0,VALID,81.8655,VALID,0,VALID,24.9106,VALID,358,VALID,0.657031,
2010-02-08, 01:33:04,VALID,1006.85,VALID,0,VALID,81.9494,VALID,0,VALID,24.9106,VALID,330,VALID,0.674219,
2010-02-08, 01:34:04,VALID,1006.83,VALID,0,VALID,82.0257,VALID,0,VALID,24.93,VALID,1,VALID,1.29805,
2010-02-08, 01:35:04,VALID,1006.85,VALID,0,VALID,82.041,VALID,0,VALID,24.9106,VALID,325,VALID,0.514844,
2010-02-08, 01:36:04,VALID,1006.82,VALID,0,VALID,82.1859,VALID,0,VALID,24.8697,VALID,360,VALID,1.12773,
2010-02-08, 01:37:04,VALID,1006.82,VALID,0,VALID,82.0868,VALID,0,VALID,24.8716,VALID,323,VALID,1.12891,
2010-02-08, 01:38:04,VALID,1006.79,VALID,0,VALID,82.0791,VALID,0,VALID,24.8716,VALID,359,VALID,0.529297,
2010-02-08, 01:39:04,VALID,1006.8,VALID,0,VALID,82.2393,VALID,0,VALID,24.8522,VALID,347,VALID,0.472266,
2010-02-08, 01:40:04,VALID,1006.78,VALID,0,VALID,82.2851,VALID,0,VALID,24.8522,VALID,352,VALID,1.07109,
2010-02-08, 01:41:04,VALID,1006.78,VALID,0,VALID,82.369,VALID,0,VALID,24.8522,VALID,4,VALID,0.748438,
2010-02-08, 01:42:04,VALID,1006.77,VALID,0,VALID,82.4301,VALID,0,VALID,24.8132,VALID,359,VALID,0.784375,
2010-02-08, 01:43:04,VALID,1006.78,VALID,0,VALID,82.2851,VALID,0,VALID,24.8308,VALID,355,VALID,0.796094,
2010-02-08, 01:44:04,VALID,1006.73,VALID,0,VALID,82.2164,VALID,0,VALID,24.8522,VALID,333,VALID,0.526563,
2010-02-08, 01:45:04,VALID,1006.71,VALID,0,VALID,82.0791,VALID,0,VALID,24.8522,VALID,342,VALID,0.852344,
2010-02-08, 01:46:04,VALID,1006.68,VALID,0,VALID,82.1402,VALID,0,VALID,24.8735,VALID,344,VALID,0.469531,
2010-02-08, 01:47:04,VALID,1006.7,VALID,0,VALID,82.3766,VALID,0,VALID,24.8735,VALID,356,VALID,0.848437,
2010-02-08, 01:48:04,VALID,1006.67,VALID,0,VALID,82.4301,VALID,0,VALID,24.8327,VALID,348,VALID,0.675391,
2010-02-08, 01:49:04,VALID,1006.65,VALID,0,VALID,82.5216,VALID,0,VALID,24.7919,VALID,10,VALID,1.01797,
2010-02-08, 01:50:04,VALID,1006.66,VALID,0,VALID,82.3232,VALID,0,VALID,24.854,VALID,349,VALID,1.5375,
2010-02-08, 01:51:04,VALID,1006.65,VALID,0,VALID,82.2622,VALID,0,VALID,24.8716,VALID,329,VALID,0.426172,
2010-02-08, 01:52:04,VALID,1006.63,VALID,0,VALID,82.4529,VALID,0,VALID,24.8503,VALID,318,VALID,0.264062,
2010-02-08, 01:53:04,VALID,1006.64,VALID,0,VALID,82.4072,VALID,0,VALID,24.8503,VALID,9,VALID,0.272656,
2010-02-08, 01:54:04,VALID,1006.6,VALID,0,VALID,82.4072,VALID,0,VALID,24.8308,VALID,7,VALID,0.283203,
2010-02-08, 01:55:04,VALID,1006.62,VALID,0,VALID,82.3919,VALID,0,VALID,24.8522,VALID,356,VALID,0.5125,
2010-02-08, 01:56:04,VALID,1006.6,VALID,0,VALID,82.5369,VALID,0,VALID,24.8327,VALID,354,VALID,0.520312,
2010-02-08, 01:57:04,VALID,1006.61,VALID,0,VALID,82.7505,VALID,0,VALID,24.8132,VALID,354,VALID,0.287891,
2010-02-08, 01:58:04,VALID,1006.58,VALID,0,VALID,82.6589,VALID,0,VALID,24.7548,VALID,347,VALID,0.963672,
2010-02-08, 01:59:04,VALID,1006.53,VALID,0,VALID,82.781,VALID,0,VALID,24.7548,VALID,348,VALID,0.737109,
2010-02-08, 02:00:04,VALID,1006.55,VALID,0,VALID,82.9488,VALID,0,VALID,24.7335,VALID,355,VALID,0.419141,
2010-02-08, 02:01:04,VALID,1006.54,VALID,0,VALID,82.9793,VALID,0,VALID,24.7159,VALID,355,VALID,0.116406,
2010-02-08, 02:02:04,VALID,1006.52,VALID,0,VALID,83.0556,VALID,0,VALID,24.7159,VALID,2,VALID,0.222656,
2010-02-08, 02:03:04,VALID,1006.53,VALID,0,VALID,83.1167,VALID,0,VALID,24.7159,VALID,2,VALID,0.235547,
2010-02-08, 02:04:04,VALID,1006.53,VALID,0,VALID,83.2311,VALID,0,VALID,24.6964,VALID,2,VALID,0.157031,
2010-02-08, 02:05:04,VALID,1006.56,VALID,0,VALID,83.315,VALID,0,VALID,24.6769,VALID,2,VALID,0.221094,
2010-02-08, 02:06:04,VALID,1006.52,VALID,0,VALID,83.4828,VALID,0,VALID,24.6574,VALID,353,VALID,0.395312,
2010-02-08, 02:07:04,VALID,1006.51,VALID,0,VALID,83.6202,VALID,0,VALID,24.638,VALID,288,VALID,0.808203,
2010-02-08, 02:08:04,VALID,1006.51,VALID,0,VALID,83.5896,VALID,0,VALID,24.638,VALID,6,VALID,0.411328,
2010-02-08, 02:09:04,VALID,1006.47,VALID,0,VALID,83.4676,VALID,0,VALID,24.6166,VALID,332,VALID,0.502734,
2010-02-08, 02:10:04,VALID,1006.47,VALID,0,VALID,83.7651,VALID,0,VALID,24.6361,VALID,321,VALID,0.269922,
2010-02-08, 02:11:04,VALID,1006.47,VALID,0,VALID,83.6354,VALID,0,VALID,24.6361,VALID,331,VALID,0.430469,
2010-02-08, 02:12:04,VALID,1006.48,VALID,0,VALID,83.7956,VALID,0,VALID,24.6361,VALID,1,VALID,0.745703,
2010-02-08, 02:13:04,VALID,1006.43,VALID,0,VALID,83.6049,VALID,0,VALID,24.6361,VALID,340,VALID,1.05625,
2010-02-08, 02:14:04,VALID,1006.43,VALID,0,VALID,83.6278,VALID,0,VALID,24.6556,VALID,353,VALID,1.08125,
2010-02-08, 02:15:04,VALID,1006.42,VALID,0,VALID,83.5668,VALID,0,VALID,24.675,VALID,346,VALID,0.273047,
2010-02-08, 02:16:04,VALID,1006.38,VALID,0,VALID,83.5591,VALID,0,VALID,24.675,VALID,351,VALID,0.860547,
2010-02-08, 02:17:04,VALID,1006.37,VALID,0,VALID,83.5057,VALID,0,VALID,24.7159,VALID,341,VALID,0.394141,
2010-02-08, 02:18:04,VALID,1006.35,VALID,0,VALID,83.4828,VALID,0,VALID,24.6926,VALID,352,VALID,0.837891,
2010-02-08, 02:19:04,VALID,1006.31,VALID,0,VALID,83.5286,VALID,0,VALID,24.7353,VALID,356,VALID,0.685547,
2010-02-08, 02:20:04,VALID,1006.31,VALID,0,VALID,83.6049,VALID,0,VALID,24.6945,VALID,356,VALID,0.942187,
2010-02-08, 02:21:04,VALID,1006.3,VALID,0,VALID,83.5591,VALID,0,VALID,24.7353,VALID,353,VALID,0.583594,
2010-02-08, 02:22:04,VALID,1006.29,VALID,0,VALID,83.5973,VALID,0,VALID,24.7353,VALID,352,VALID,0.907422,
2010-02-08, 02:23:04,VALID,1006.28,VALID,0,VALID,83.6888,VALID,0,VALID,24.6945,VALID,311,VALID,0.526172,
2010-02-08, 02:24:04,VALID,1006.27,VALID,0,VALID,83.8414,VALID,0,VALID,24.7159,VALID,357,VALID,0.797266,
2010-02-08, 02:25:04,VALID,1006.22,VALID,0,VALID,83.8719,VALID,0,VALID,24.6945,VALID,354,VALID,0.786328,
2010-02-08, 02:26:04,VALID,1006.25,VALID,0,VALID,83.9101,VALID,0,VALID,24.7177,VALID,346,VALID,0.841406,
2010-02-08, 02:27:04,VALID,1006.22,VALID,0,VALID,84.0169,VALID,0,VALID,24.675,VALID,351,VALID,0.924609,
2010-02-08, 02:28:04,VALID,1006.24,VALID,0,VALID,84.1923,VALID,0,VALID,24.6769,VALID,354,VALID,0.908984,
2010-02-08, 02:29:04,VALID,1006.21,VALID,0,VALID,84.3525,VALID,0,VALID,24.5972,VALID,345,VALID,0.774609,
2010-02-08, 02:30:04,VALID,1006.18,VALID,0,VALID,84.5585,VALID,0,VALID,24.5796,VALID,353,VALID,1.06523,
2010-02-08, 02:31:04,VALID,1006.2,VALID,0,VALID,84.9018,VALID,0,VALID,24.5193,VALID,3,VALID,0.731641,
2010-02-08, 02:32:04,VALID,1006.18,VALID,0,VALID,85.1536,VALID,0,VALID,24.4609,VALID,359,VALID,1.00586,
2010-02-08, 02:33:04,VALID,1006.15,VALID,0,VALID,85.3595,VALID,0,VALID,24.4025,VALID,343,VALID,1.13945,
2010-02-08, 02:34:04,VALID,1006.16,VALID,0,VALID,85.5884,VALID,0,VALID,24.3654,VALID,340,VALID,0.592578,
2010-02-08, 02:35:04,VALID,1006.15,VALID,0,VALID,85.7944,VALID,0,VALID,24.3459,VALID,351,VALID,1.59414,
2010-02-08, 02:36:04,VALID,1006.17,VALID,0,VALID,86.0004,VALID,0,VALID,24.307,VALID,356,VALID,0.712109,
2010-02-08, 02:37:04,VALID,1006.15,VALID,0,VALID,86.1758,VALID,0.100563,VALID,24.2875,VALID,343,VALID,0.848437,
2010-02-08, 02:38:04,VALID,1006.13,VALID,0,VALID,86.2064,VALID,0,VALID,24.2273,VALID,353,VALID,0.567969,
2010-02-08, 02:39:04,VALID,1006.15,VALID,0,VALID,86.3513,VALID,0,VALID,24.2504,VALID,355,VALID,0.852734,
2010-02-08, 02:40:04,VALID,1006.15,VALID,0,VALID,86.42,VALID,0,VALID,24.2291,VALID,346,VALID,0.935547,
2010-02-08, 02:41:04,VALID,1006.14,VALID,0,VALID,86.4657,VALID,0,VALID,24.2273,VALID,360,VALID,0.923437,
2010-02-08, 02:42:04,VALID,1006.11,VALID,0,VALID,86.5725,VALID,0,VALID,24.1902,VALID,357,VALID,0.984766,
2010-02-08, 02:43:04,VALID,1006.12,VALID,0,VALID,86.748,VALID,0,VALID,24.1707,VALID,5,VALID,0.683203,
2010-02-08, 02:44:04,VALID,1006.1,VALID,0,VALID,86.8472,VALID,0,VALID,24.1707,VALID,358,VALID,0.846875,
2010-02-08, 02:45:04,VALID,1006.11,VALID,0,VALID,86.954,VALID,0,VALID,24.1105,VALID,5,VALID,0.735547,
2010-02-08, 02:46:04,VALID,1006.13,VALID,0,VALID,87.0913,VALID,0,VALID,24.1123,VALID,21,VALID,0.669922,
2010-02-08, 02:47:04,VALID,1006.13,VALID,0,VALID,87.16,VALID,0,VALID,24.0929,VALID,4,VALID,0.844141,
2010-02-08, 02:48:04,VALID,1006.15,VALID,0,VALID,87.1752,VALID,0,VALID,24.0521,VALID,2,VALID,0.478125,
2010-02-08, 02:49:04,VALID,1006.16,VALID,0,VALID,87.1676,VALID,0,VALID,24.0521,VALID,4,VALID,0.759375,
2010-02-08, 02:50:04,VALID,1006.14,VALID,0,VALID,87.1294,VALID,0,VALID,24.0521,VALID,341,VALID,0.849219,
2010-02-08, 02:51:04,VALID,1006.17,VALID,0,VALID,87.1523,VALID,0,VALID,24.0326,VALID,12,VALID,0.572266,
2010-02-08, 02:52:04,VALID,1006.19,VALID,0,VALID,87.0837,VALID,0,VALID,24.0521,VALID,354,VALID,0.482422,
2010-02-08, 02:53:04,VALID,1006.21,VALID,0,VALID,87.0074,VALID,0,VALID,24.0521,VALID,343,VALID,0.577344,
2010-02-08, 02:54:04,VALID,1006.22,VALID,0,VALID,86.954,VALID,0,VALID,24.0716,VALID,343,VALID,0.454688,
2010-02-08, 02:55:04,VALID,1006.21,VALID,0,VALID,86.7633,VALID,0,VALID,24.1318,VALID,354,VALID,0.851953,
2010-02-08, 02:56:04,VALID,1006.18,VALID,0,VALID,86.5268,VALID,0,VALID,24.1494,VALID,10,VALID,0.734766,
2010-02-08, 02:57:04,VALID,1006.17,VALID,0,VALID,86.2521,VALID,0,VALID,24.2291,VALID,323,VALID,0.425391,
2010-02-08, 02:58:04,VALID,1006.18,VALID,0,VALID,86.0995,VALID,0,VALID,24.2273,VALID,342,VALID,0.6125,
2010-02-08, 02:59:04,VALID,1006.18,VALID,0,VALID,86.0156,VALID,0,VALID,24.2486,VALID,342,VALID,0.393359,
2010-02-08, 03:00:04,VALID,1006.17,VALID,0,VALID,85.9546,VALID,0,VALID,24.2273,VALID,354,VALID,0.277734,
2010-02-08, 03:01:04,VALID,1006.17,VALID,0,VALID,86.0385,VALID,0,VALID,24.2486,VALID,346,VALID,0.462109,
2010-02-08, 03:02:04,VALID,1006.17,VALID,0,VALID,86.0233,VALID,0,VALID,24.2078,VALID,349,VALID,0.218359,
2010-02-08, 03:03:04,VALID,1006.15,VALID,0,VALID,86.1072,VALID,0,VALID,24.2078,VALID,336,VALID,0.316797,
2010-02-08, 03:04:04,VALID,1006.12,VALID,0,VALID,86.1835,VALID,0,VALID,24.1884,VALID,336,VALID,0.135937,
2010-02-08, 03:05:04,VALID,1006.1,VALID,0,VALID,86.2445,VALID,0,VALID,24.1902,VALID,336,VALID,0.0796875,
2010-02-08, 03:06:04,VALID,1006.1,VALID,0,VALID,86.2598,VALID,0.100563,VALID,24.1494,VALID,336,VALID,0.00742187,
2010-02-08, 03:07:04,VALID,1006.1,VALID,0,VALID,86.4657,VALID,0,VALID,24.1105,VALID,336,VALID,0.208984,
2010-02-08, 03:08:04,VALID,1006.06,VALID,0,VALID,86.7022,VALID,0,VALID,24.0716,VALID,348,VALID,0.572656,
2010-02-08, 03:09:04,VALID,1006.05,VALID,0,VALID,87.0226,VALID,0,VALID,24.015,VALID,348,VALID,0.225,
2010-02-08, 03:10:04,VALID,1006.05,VALID,0,VALID,87.2362,VALID,0,VALID,23.9761,VALID,349,VALID,0.283594,
2010-02-08, 03:11:04,VALID,1006.07,VALID,0,VALID,87.3049,VALID,0,VALID,23.9548,VALID,354,VALID,0.607422,
2010-02-08, 03:12:04,VALID,1006.05,VALID,0,VALID,87.5033,VALID,0,VALID,23.9159,VALID,357,VALID,0.591406,
2010-02-08, 03:13:04,VALID,1006.06,VALID,0,VALID,87.7779,VALID,0,VALID,23.8593,VALID,357,VALID,0.295703,
2010-02-08, 03:14:04,VALID,1006.07,VALID,0,VALID,88.2127,VALID,0,VALID,23.7601,VALID,357,VALID,0.346484,
2010-02-08, 03:15:04,VALID,1006.06,VALID,0,VALID,88.5713,VALID,0,VALID,23.7035,VALID,357,VALID,0.390625,
2010-02-08, 03:16:04,VALID,1006.06,VALID,0,VALID,88.8307,VALID,0,VALID,23.6239,VALID,357,VALID,0.229297,
2010-02-08, 03:17:04,VALID,1006.05,VALID,0,VALID,89.1053,VALID,0,VALID,23.5655,VALID,357,VALID,0.487109,
2010-02-08, 03:18:04,VALID,1006.06,VALID,0,VALID,89.3952,VALID,0,VALID,23.5071,VALID,357,VALID,0.273828,
2010-02-08, 03:19:04,VALID,1006.06,VALID,0,VALID,89.7156,VALID,0.100563,VALID,23.4487,VALID,357,VALID,0.141406,
2010-02-08, 03:20:04,VALID,1006.08,VALID,0,VALID,89.8758,VALID,0,VALID,23.4293,VALID,357,VALID,0,
2010-02-08, 03:21:04,VALID,1006.07,VALID,0,VALID,90.1276,VALID,0,VALID,23.3904,VALID,357,VALID,0,
2010-02-08, 03:22:04,VALID,1006.09,VALID,0,VALID,90.3031,VALID,0,VALID,23.3904,VALID,357,VALID,0,
2010-02-08, 03:23:04,VALID,1006.11,VALID,0,VALID,90.3793,VALID,0,VALID,23.3709,VALID,357,VALID,0,
2010-02-08, 03:24:05,VALID,1006.08,VALID,0,VALID,90.4938,VALID,0,VALID,23.3709,VALID,340,VALID,0.405469,
2010-02-08, 03:25:05,VALID,1006.08,VALID,0,VALID,90.4862,VALID,0.100563,VALID,23.3709,VALID,340,VALID,0.111328,
2010-02-08, 03:26:05,VALID,1006.1,VALID,0,VALID,90.4556,VALID,0,VALID,23.3709,VALID,340,VALID,0.0578125,
2010-02-08, 03:27:05,VALID,1006.13,VALID,0,VALID,90.387,VALID,0,VALID,23.3727,VALID,340,VALID,0,
2010-02-08, 03:28:05,VALID,1006.11,VALID,0,VALID,90.4404,VALID,0,VALID,23.332,VALID,340,VALID,0.0191406,
2010-02-08, 03:29:05,VALID,1006.16,VALID,0,VALID,90.5472,VALID,0,VALID,23.2931,VALID,340,VALID,0.107031,
2010-02-08, 03:30:05,VALID,1006.18,VALID,0,VALID,90.7837,VALID,0,VALID,23.2931,VALID,317,VALID,0.578516,
2010-02-08, 03:31:05,VALID,1006.22,VALID,0,VALID,90.6616,VALID,0,VALID,23.355,VALID,313,VALID,0.454688,
2010-02-08, 03:32:05,VALID,1006.24,VALID,0,VALID,90.6921,VALID,0,VALID,23.3125,VALID,262,VALID,0.356641,
2010-02-08, 03:33:05,VALID,1006.26,VALID,0,VALID,90.4327,VALID,0,VALID,23.3514,VALID,263,VALID,0.244531,
2010-02-08, 03:34:05,VALID,1006.25,VALID,0,VALID,90.2573,VALID,0,VALID,23.3921,VALID,263,VALID,0.240625,
2010-02-08, 03:35:05,VALID,1006.31,VALID,0,VALID,90.1123,VALID,0,VALID,23.3727,VALID,263,VALID,0,
2010-02-08, 03:36:05,VALID,1006.3,VALID,0,VALID,90.0589,VALID,0,VALID,23.3921,VALID,263,VALID,0.235547,
2010-02-08, 03:37:05,VALID,1006.31,VALID,0,VALID,90.12,VALID,0,VALID,23.3514,VALID,263,VALID,0.188281,
2010-02-08, 03:38:05,VALID,1006.32,VALID,0,VALID,90.1123,VALID,0,VALID,23.332,VALID,263,VALID,0.147266,
2010-02-08, 03:39:05,VALID,1006.33,VALID,0,VALID,90.1276,VALID,0,VALID,23.3125,VALID,263,VALID,0.435547,
2010-02-08, 03:40:05,VALID,1006.34,VALID,0,VALID,90.242,VALID,0,VALID,23.2329,VALID,264,VALID,0.566406,
2010-02-08, 03:41:05,VALID,1006.35,VALID,0,VALID,90.5243,VALID,0,VALID,23.1957,VALID,264,VALID,0.565234,
2010-02-08, 03:42:05,VALID,1006.37,VALID,0,VALID,90.6769,VALID,0,VALID,23.1374,VALID,264,VALID,0.480078,
2010-02-08, 03:43:05,VALID,1006.4,VALID,0,VALID,90.921,VALID,0,VALID,23.079,VALID,264,VALID,0.401563,
2010-02-08, 03:44:05,VALID,1006.4,VALID,0,VALID,91.2414,VALID,0,VALID,23.0206,VALID,264,VALID,0.420703,